Flag for Switzerland Weather past 2 weeks in Pratteln, Basel-Land, Switzerland

Now
59 °F

Passing clouds.


Feels Like: 57 °F
Forecast: 38 / 45 °F
Wind: 9 mph from Southwest

Location: Bale-Mulhouse

Current Time: Oct 21, 2014 at 7:34:45 AM

Latest Report: Oct 21, 2014 at 7:00 AM


Visibility: N/A

Pressure: 29.98 "Hg

Humidity: 94%

Dew point: 57 °F

Location of PrattelnLocation

Historic Weather in Pratteln — Graph

°F

Pratteln temperature yesterday

Maximum temperature yesterday: 73 °F (at 2:30 PM)
Minimum temperature yesterday: 54 °F (at 7:00 AM)
Average temperature yesterday: 63 °F

Past Weeks' High & Low Weather Summary

 TemperatureHumidityPressure
High75 °F (Oct 18, 4:30 PM)100% (Oct 6, 6:00 AM)30.21 "Hg (Oct 6, 6:00 AM)
Low46 °F (Oct 18, 3:30 AM)50% (Oct 14, 3:30 PM)29.74 "Hg (Oct 13, 5:00 AM)
Average60 °F87%29.93 "Hg
* Reported Oct 6 6:00 AM — Oct 21 6:30 AM, Pratteln, Weather by CustomWeather, © 2014

Note: Actual official high and low records may vary slightly from our data, if they occured in-between our weather recording intervals... More about our weather records

Advertising

Pratteln weather history for previous 24 hours

 ConditionsComfort  
Time TempWeatherWind HumidityBarometerVisibility
6:30 AM
Oct 21
59 °FLight rain. Passing clouds.8 mph94%29.98 "Hg6 mi
6:00 AM59 °FPassing clouds.7 mph88%29.98 "HgN/A
5:00 AM59 °FPassing clouds.7 mph88%30.01 "HgN/A
4:30 AM59 °FPassing clouds.7 mph94%30.01 "HgN/A
4:00 AM59 °FMostly cloudy.7 mph94%30.01 "HgN/A
3:30 AM59 °FPassing clouds.3 mph94%30.04 "HgN/A
3:00 AM61 °FPassing clouds.5 mph94%30.04 "HgN/A
2:30 AM59 °FLight rain. Partly cloudy.1 mph100%30.04 "Hg4 mi
2:00 AM61 °FPartly cloudy.2 mph94%30.04 "HgN/A
1:30 AM61 °FLight rain. Mostly cloudy.5 mph94%30.04 "HgN/A
1:00 AM59 °FMostly cloudy.No wind100%30.04 "HgN/A
12:30 AM61 °FClear.No wind94%30.04 "HgN/A
12:00 AM61 °FPartly cloudy.3 mph94%30.04 "HgN/A
11:30 PM
Oct 20
61 °FPartly cloudy.5 mph94%30.04 "HgN/A
11:00 PM61 °FLight rain. Partly cloudy.3 mph94%30.07 "Hg4 mi
10:30 PM63 °FLight rain. Partly cloudy.3 mph94%30.07 "Hg4 mi
10:05 PM63 °FLight rain. Partly cloudy.6 mph94%30.07 "Hg1 mi
9:30 PM63 °FLight rain. Passing clouds.2 mph100%30.07 "Hg4 mi
9:00 PM63 °FPartly cloudy.2 mph94%30.04 "HgN/A
8:30 PM64 °FLight rain. Partly cloudy.1 mph94%30.04 "Hg5 mi
8:00 PM64 °FLight rain. Clear.1 mph88%30.07 "HgN/A
7:30 PM66 °FSunny.2 mph83%30.07 "Hg10 mi
7:00 PM66 °FSunny.2 mph83%30.04 "Hg10 mi
6:30 PM68 °FPartly sunny.5 mph78%30.04 "HgN/A
6:00 PM70 °FPartly sunny.6 mph73%30.04 "HgN/A
5:30 PM70 °FBroken clouds.7 mph73%30.07 "HgN/A
5:00 PM72 °FPartly sunny.9 mph69%30.07 "HgN/A
4:30 PM72 °FPartly sunny.8 mph69%30.07 "HgN/A
4:00 PM72 °FPartly sunny.9 mph69%30.07 "HgN/A
3:30 PM72 °FPartly sunny.8 mph69%30.09 "HgN/A
3:00 PM73 °FPartly sunny.8 mph65%30.09 "HgN/A
2:30 PM73 °FBroken clouds.3 mph65%30.09 "HgN/A
2:00 PM72 °FPartly sunny.6 mph65%30.09 "HgN/A
1:30 PM72 °FPartly sunny.9 mph65%30.12 "HgN/A
1:00 PM72 °FScattered clouds.7 mph65%30.12 "HgN/A
12:42 PM72 °FPassing clouds.8 mph65%30.15 "HgN/A
12:00 PM68 °FPassing clouds.5 mph69%30.15 "HgN/A
11:30 AM68 °FScattered clouds.3 mph73%30.15 "HgN/A
11:00 AM63 °FScattered clouds.7 mph88%30.15 "HgN/A
10:30 AM59 °FScattered clouds.6 mph88%30.18 "HgN/A
10:00 AM59 °FBroken clouds.6 mph88%30.18 "HgN/A
9:30 AM57 °FBroken clouds.7 mph94%30.18 "HgN/A
9:00 AM55 °FScattered clouds.2 mph100%30.18 "HgN/A
8:30 AM54 °FClear.3 mph100%30.15 "Hg10 mi
8:00 AM54 °FPassing clouds.2 mph94%30.15 "HgN/A
7:30 AM54 °FPassing clouds.3 mph94%30.15 "HgN/A
7:00 AM54 °FPassing clouds.5 mph94%30.15 "HgN/A
Weather by CustomWeather, © 2014

See weather overviewHow to use our weather pages